TimeAKST,TemperatureF,Dew PointF,Humidity,Sea Level PressureIn,VisibilityMPH,Wind Direction,Wind SpeedMPH,Gust SpeedMPH,PrecipitationIn,Events,Conditions,WindDirDegrees,DateUTC
12:16 AM,-25.6,-9999,N/A,29.61,10.0,SSW,4.6,-,N/A,,Overcast,210,2013-02-24 09:16:00
12:36 AM,-23.8,-25.6,91,29.61,10.0,SSW,3.5,-,N/A,,Overcast,200,2013-02-24 09:36:00
12:56 AM,-23.8,-9999,N/A,29.61,10.0,South,3.5,-,N/A,,Overcast,190,2013-02-24 09:56:00
1:16 AM,-23.8,-9999,N/A,29.61,10.0,South,3.5,-,N/A,,Mostly Cloudy,190,2013-02-24 10:16:00
1:36 AM,-22.0,-25.6,83,29.62,10.0,Calm,Calm,-,N/A,,Scattered Clouds,0,2013-02-24 10:36:00
1:56 AM,-20.2,-9999,N/A,29.62,10.0,Calm,Calm,-,N/A,,Overcast,0,2013-02-24 10:56:00
2:16 AM,-20.2,-23.8,83,29.62,5.0,Calm,Calm,-,N/A,,Overcast,0,2013-02-24 11:16:00
2:36 AM,-23.8,-9999,N/A,29.62,10.0,SE,3.5,-,N/A,,Partly Cloudy,130,2013-02-24 11:36:00
2:56 AM,-22.0,-9999,N/A,29.63,10.0,Calm,Calm,-,N/A,,Scattered Clouds,0,2013-02-24 11:56:00
3:16 AM,-20.2,-29.2,63,29.63,10.0,SE,3.5,-,N/A,,Partly Cloudy,130,2013-02-24 12:16:00
3:36 AM,-20.2,-9999,N/A,29.63,10.0,Calm,Calm,-,N/A,,Clear,0,2013-02-24 12:36:00
3:56 AM,-23.8,-9999,N/A,29.64,10.0,Calm,Calm,-,N/A,,Clear,0,2013-02-24 12:56:00
4:16 AM,-23.8,-9999,N/A,29.64,10.0,Calm,Calm,-,N/A,,Clear,0,2013-02-24 13:16:00
4:36 AM,-23.8,-29.2,76,29.65,10.0,Calm,Calm,-,N/A,,Clear,0,2013-02-24 13:36:00
4:56 AM,-25.6,-9999,N/A,29.65,10.0,Calm,Calm,-,N/A,,Clear,0,2013-02-24 13:56:00
5:16 AM,-29.2,-9999,N/A,29.64,10.0,Calm,Calm,-,N/A,,Clear,0,2013-02-24 14:16:00
5:36 AM,-29.2,-9999,N/A,29.65,10.0,Calm,Calm,-,N/A,,Clear,0,2013-02-24 14:36:00
5:56 AM,-29.2,-9999,N/A,29.65,10.0,Calm,Calm,-,N/A,,Clear,0,2013-02-24 14:56:00
6:16 AM,-31.0,-9999,N/A,29.65,10.0,Calm,Calm,-,N/A,,Clear,0,2013-02-24 15:16:00
6:36 AM,-23.8,-43.6,35,29.66,10.0,WSW,3.5,-,N/A,,Clear,240,2013-02-24 15:36:00
6:56 AM,-29.2,-9999,N/A,29.67,10.0,SSW,4.6,-,N/A,,Clear,200,2013-02-24 15:56:00
7:16 AM,-29.2,-9999,N/A,29.68,10.0,Calm,Calm,-,N/A,,Clear,0,2013-02-24 16:16:00
7:36 AM,-29.2,-9999,N/A,29.68,10.0,SSW,3.5,-,N/A,,Clear,200,2013-02-24 16:36:00
7:56 AM,-29.2,-9999,N/A,29.68,10.0,Calm,Calm,-,N/A,,Clear,0,2013-02-24 16:56:00
8:16 AM,-29.2,-9999,N/A,29.69,10.0,Calm,Calm,-,N/A,,Clear,0,2013-02-24 17:16:00
8:36 AM,-32.8,-9999,N/A,29.69,10.0,Calm,Calm,-,N/A,,Clear,0,2013-02-24 17:36:00
8:56 AM,-31.0,-9999,N/A,29.69,10.0,Calm,Calm,-,N/A,,Clear,0,2013-02-24 17:56:00
9:16 AM,-29.2,-9999,N/A,29.70,10.0,Calm,Calm,-,N/A,,Clear,0,2013-02-24 18:16:00
9:36 AM,-32.8,-9999,N/A,29.70,10.0,Calm,Calm,-,N/A,,Clear,0,2013-02-24 18:36:00
9:56 AM,-32.8,-9999,N/A,29.70,10.0,Calm,Calm,-,N/A,,Clear,0,2013-02-24 18:56:00
10:16 AM,-29.2,-9999,N/A,29.71,10.0,South,3.5,-,N/A,,Clear,190,2013-02-24 19:16:00
10:36 AM,-31.0,-9999,N/A,29.71,10.0,South,4.6,-,N/A,,Clear,190,2013-02-24 19:36:00
10:56 AM,-31.0,-9999,N/A,29.72,10.0,South,4.6,-,N/A,,Clear,190,2013-02-24 19:56:00
11:16 AM,-29.2,-9999,N/A,29.73,10.0,Calm,Calm,-,N/A,,Clear,0,2013-02-24 20:16:00
11:36 AM,-29.2,-9999,N/A,29.73,10.0,Calm,Calm,-,N/A,,Clear,0,2013-02-24 20:36:00
11:56 AM,-29.2,-9999,N/A,29.73,10.0,Calm,Calm,-,N/A,,Clear,0,2013-02-24 20:56:00
12:16 PM,-27.4,-9999,N/A,29.74,10.0,Calm,Calm,-,N/A,,Clear,0,2013-02-24 21:16:00
12:36 PM,-25.6,-9999,N/A,29.75,10.0,Calm,Calm,-,N/A,,Clear,0,2013-02-24 21:36:00
12:56 PM,-25.6,-9999,N/A,29.75,10.0,Calm,Calm,-,N/A,,Clear,0,2013-02-24 21:56:00
1:16 PM,-25.6,-9999,N/A,29.75,10.0,Calm,Calm,-,N/A,,Clear,0,2013-02-24 22:16:00
1:36 PM,-25.6,-9999,N/A,29.75,10.0,Calm,Calm,-,N/A,,Clear,0,2013-02-24 22:36:00
1:56 PM,-25.6,-9999,N/A,29.76,10.0,Calm,Calm,-,N/A,,Clear,0,2013-02-24 22:56:00
2:16 PM,-25.6,-9999,N/A,29.76,10.0,Calm,Calm,-,N/A,,Scattered Clouds,0,2013-02-24 23:16:00
2:36 PM,-22.0,-27.4,76,29.76,2.5,Calm,Calm,-,N/A,,Mostly Cloudy,0,2013-02-24 23:36:00
2:56 PM,-23.8,-9999,N/A,29.76,7.0,Calm,Calm,-,N/A,,Clear,0,2013-02-24 23:56:00
3:16 PM,-23.8,-9999,N/A,29.76,9.0,Calm,Calm,-,N/A,,Scattered Clouds,0,2013-02-25 00:16:00
3:36 PM,-20.2,-9999,N/A,29.77,9.0,Calm,Calm,-,N/A,,Partly Cloudy,0,2013-02-25 00:36:00
3:56 PM,-22.0,-9999,N/A,29.77,10.0,Calm,Calm,-,N/A,,Clear,0,2013-02-25 00:56:00
4:16 PM,-22.0,-9999,N/A,29.77,10.0,Calm,Calm,-,N/A,,Clear,0,2013-02-25 01:16:00
4:36 PM,-23.8,-9999,N/A,29.78,10.0,Calm,Calm,-,N/A,,Scattered Clouds,0,2013-02-25 01:36:00
4:56 PM,-22.0,-9999,N/A,29.78,10.0,Calm,Calm,-,N/A,,Overcast,0,2013-02-25 01:56:00
5:16 PM,-22.0,-9999,N/A,29.78,10.0,SE,5.8,-,N/A,,Overcast,130,2013-02-25 02:16:00
5:36 PM,-20.2,-9999,N/A,29.78,10.0,ESE,6.9,-,N/A,,Mostly Cloudy,110,2013-02-25 02:36:00
5:56 PM,-22.0,-9999,N/A,29.78,10.0,ESE,5.8,-,N/A,,Partly Cloudy,110,2013-02-25 02:56:00
6:16 PM,-22.0,-9999,N/A,29.78,10.0,ESE,6.9,-,N/A,,Clear,110,2013-02-25 03:16:00
6:36 PM,-22.0,-9999,N/A,29.78,10.0,ESE,6.9,-,N/A,,Clear,110,2013-02-25 03:36:00
6:56 PM,-23.8,-9999,N/A,29.79,10.0,ESE,9.2,-,N/A,,Clear,110,2013-02-25 03:56:00
7:16 PM,-23.8,-9999,N/A,29.79,10.0,ESE,9.2,-,N/A,,Clear,110,2013-02-25 04:16:00
7:36 PM,-23.8,-9999,N/A,29.80,10.0,ESE,8.1,-,N/A,,Clear,110,2013-02-25 04:36:00
7:56 PM,-23.8,-9999,N/A,29.80,10.0,East,8.1,-,N/A,,Mostly Cloudy,100,2013-02-25 04:56:00
8:16 PM,-23.8,-9999,N/A,29.81,10.0,East,8.1,-,N/A,,Overcast,100,2013-02-25 05:16:00
8:36 PM,-23.8,-9999,N/A,29.81,10.0,ESE,5.8,-,N/A,,Mostly Cloudy,110,2013-02-25 05:36:00
8:56 PM,-25.6,-9999,N/A,29.81,10.0,Calm,Calm,-,N/A,,Mostly Cloudy,0,2013-02-25 05:56:00
9:16 PM,-25.6,-9999,N/A,29.82,5.0,ESE,6.9,-,N/A,,Mostly Cloudy,120,2013-02-25 06:16:00
9:36 PM,-25.6,-9999,N/A,29.82,10.0,ESE,6.9,-,N/A,,Scattered Clouds,120,2013-02-25 06:36:00
9:56 PM,-25.6,-9999,N/A,29.83,10.0,SE,5.8,-,N/A,,Mostly Cloudy,130,2013-02-25 06:56:00
10:16 PM,-25.6,-9999,N/A,29.83,8.0,ESE,5.8,-,N/A,,Overcast,120,2013-02-25 07:16:00
10:36 PM,-25.6,-9999,N/A,29.83,2.5,ESE,5.8,-,N/A,,Scattered Clouds,120,2013-02-25 07:36:00
10:56 PM,-25.6,-9999,N/A,29.84,10.0,ESE,6.9,-,N/A,,Mostly Cloudy,120,2013-02-25 07:56:00
11:16 PM,-23.8,-27.4,83,29.84,2.5,ESE,4.6,-,N/A,,Overcast,120,2013-02-25 08:16:00
11:36 PM,-20.2,-9999,N/A,29.84,10.0,ESE,3.5,-,N/A,,Scattered Clouds,110,2013-02-25 08:36:00
11:56 PM,-25.6,-9999,N/A,29.85,10.0,SW,3.5,-,N/A,,Clear,220,2013-02-25 08:56:00